Time,TemperatureF,DewpointF,PressureIn,WindDirection,WindDirectionDegrees,WindSpeedMPH,WindSpeedGustMPH,Humidity,HourlyPrecipIn,Conditions,Clouds,dailyrainin,SolarRadiationWatts/m^2,SoftwareType,DateUTC
2013-04-10 00:10:00,46.3,44.0,29.95,SSE,161,4.0,-999.0,90,-99.99,,,0.00,0,weatherlink.com 1.10,2013-04-10 04:10:00,
2013-04-10 00:25:00,46.2,43.0,29.95,South,185,3.0,-999.0,89,-99.99,,,0.00,0,weatherlink.com 1.10,2013-04-10 04:25:00,
2013-04-10 00:40:00,46.0,43.0,29.95,SE,137,4.0,-999.0,90,-99.99,,,0.00,0,weatherlink.com 1.10,2013-04-10 04:40:00,
2013-04-10 00:55:00,45.8,43.0,29.95,SSE,160,0.0,-999.0,90,-99.99,,,0.00,0,weatherlink.com 1.10,2013-04-10 04:55:00,
2013-04-10 01:10:00,45.7,43.0,29.93,South,179,4.0,-999.0,89,-99.99,,,0.00,0,weatherlink.com 1.10,2013-04-10 05:10:00,
2013-04-10 01:25:00,45.8,43.0,29.93,SSE,148,0.0,-999.0,89,-99.99,,,0.00,0,weatherlink.com 1.10,2013-04-10 05:25:00,
2013-04-10 01:40:00,45.9,43.0,29.93,South,174,4.0,-999.0,89,-99.99,,,0.00,0,weatherlink.com 1.10,2013-04-10 05:40:00,
2013-04-10 01:55:00,46.1,43.0,29.92,South,173,2.0,-999.0,88,-99.99,,,0.00,0,weatherlink.com 1.10,2013-04-10 05:55:00,
2013-04-10 02:10:00,46.2,43.0,29.94,South,178,0.0,-999.0,89,-99.99,,,0.00,0,weatherlink.com 1.10,2013-04-10 06:10:00,
2013-04-10 02:25:00,46.4,43.0,29.93,South,178,0.0,-999.0,88,-99.99,,,0.00,0,weatherlink.com 1.10,2013-04-10 06:25:00,
2013-04-10 02:40:00,46.4,43.0,29.92,South,176,0.0,-999.0,88,-99.99,,,0.00,0,weatherlink.com 1.10,2013-04-10 06:40:00,
2013-04-10 02:55:00,46.4,43.0,29.94,South,177,0.0,-999.0,87,-99.99,,,0.00,0,weatherlink.com 1.10,2013-04-10 06:55:00,
2013-04-10 03:10:00,46.6,43.0,29.95,South,178,0.0,-999.0,87,-99.99,,,0.00,0,weatherlink.com 1.10,2013-04-10 07:10:00,
2013-04-10 03:25:00,46.8,44.0,29.95,NNW,336,0.0,-999.0,88,-99.99,,,0.00,0,weatherlink.com 1.10,2013-04-10 07:25:00,
2013-04-10 03:40:00,46.7,43.0,29.96,NNW,336,0.0,-999.0,88,-99.99,,,0.00,0,weatherlink.com 1.10,2013-04-10 07:40:00,
2013-04-10 03:55:00,46.7,44.0,29.99,North,355,4.0,-999.0,90,-99.99,,,0.02,0,weatherlink.com 1.10,2013-04-10 07:55:00,
2013-04-10 04:11:00,46.1,43.0,29.98,North,5,0.0,-999.0,90,-99.99,,,0.04,0,weatherlink.com 1.10,2013-04-10 08:11:00,
2013-04-10 04:25:00,46.0,44.0,29.96,North,5,0.0,-999.0,91,-99.99,,,0.06,0,weatherlink.com 1.10,2013-04-10 08:25:00,
2013-04-10 04:40:00,45.8,44.0,29.93,SSE,166,0.0,-999.0,92,-99.99,,,0.06,0,weatherlink.com 1.10,2013-04-10 08:40:00,
2013-04-10 04:56:00,45.5,44.0,29.91,ESE,117,0.0,-999.0,93,-99.99,,,0.07,0,weatherlink.com 1.10,2013-04-10 08:56:00,
2013-04-10 05:11:00,45.2,43.0,29.91,SE,129,0.0,-999.0,93,-99.99,,,0.07,0,weatherlink.com 1.10,2013-04-10 09:11:00,
2013-04-10 05:26:00,44.9,43.0,29.88,ESE,112,0.0,-999.0,93,-99.99,,,0.07,0,weatherlink.com 1.10,2013-04-10 09:26:00,
2013-04-10 05:41:00,44.8,43.0,29.88,ESE,108,0.0,-999.0,94,-99.99,,,0.07,0,weatherlink.com 1.10,2013-04-10 09:41:00,
2013-04-10 05:56:00,44.6,43.0,29.88,East,97,0.0,-999.0,94,-99.99,,,0.07,0,weatherlink.com 1.10,2013-04-10 09:56:00,
2013-04-10 06:41:00,44.3,43.0,29.91,East,88,0.0,-999.0,94,-99.99,,,0.07,14,weatherlink.com 1.10,2013-04-10 10:41:00,
2013-04-10 07:11:00,44.5,43.0,29.90,NE,54,0.0,-999.0,95,-99.99,,,0.07,44,weatherlink.com 1.10,2013-04-10 11:11:00,
2013-04-10 07:41:00,44.8,44.0,29.91,North,360,0.0,-999.0,95,-99.99,,,0.07,98,weatherlink.com 1.10,2013-04-10 11:41:00,
2013-04-10 07:56:00,45.3,44.0,29.93,NNW,342,0.0,-999.0,96,-99.99,,,0.07,74,weatherlink.com 1.10,2013-04-10 11:56:00,
2013-04-10 08:11:00,45.2,44.0,29.92,ENE,58,0.0,-999.0,95,-99.99,,,0.07,142,weatherlink.com 1.10,2013-04-10 12:11:00,
2013-04-10 08:26:00,45.3,44.0,29.92,NE,48,0.0,-999.0,95,-99.99,,,0.07,137,weatherlink.com 1.10,2013-04-10 12:26:00,
2013-04-10 08:41:00,45.6,44.0,29.92,NE,48,0.0,-999.0,95,-99.99,,,0.07,185,weatherlink.com 1.10,2013-04-10 12:41:00,
2013-04-10 08:56:00,46.2,45.0,29.93,SE,126,0.0,-999.0,95,-99.99,,,0.07,200,weatherlink.com 1.10,2013-04-10 12:56:00,
2013-04-10 09:11:00,46.9,46.0,29.92,ENE,59,0.0,-999.0,95,-99.99,,,0.07,241,weatherlink.com 1.10,2013-04-10 13:11:00,
2013-04-10 09:41:00,48.8,47.0,29.93,East,79,0.0,-999.0,92,-99.99,,,0.07,357,weatherlink.com 1.10,2013-04-10 13:41:00,
2013-04-10 09:56:00,50.3,47.0,29.93,East,98,0.0,-999.0,89,-99.99,,,0.07,506,weatherlink.com 1.10,2013-04-10 13:56:00,
2013-04-10 10:11:00,51.4,47.0,29.93,East,98,0.0,-999.0,86,-99.99,,,0.07,638,weatherlink.com 1.10,2013-04-10 14:11:00,
2013-04-10 10:41:00,50.2,45.0,29.94,North,5,5.0,-999.0,82,-99.99,,,0.07,459,weatherlink.com 1.10,2013-04-10 14:41:00,
2013-04-10 10:56:00,48.9,45.0,29.94,NNE,21,2.0,-999.0,85,-99.99,,,0.07,457,weatherlink.com 1.10,2013-04-10 14:56:00,
2013-04-10 11:12:00,48.2,44.0,29.94,NNW,344,8.0,-999.0,86,-99.99,,,0.07,817,weatherlink.com 1.10,2013-04-10 15:12:00,
2013-04-10 11:26:00,48.0,44.0,29.95,NE,52,0.0,-999.0,86,-99.99,,,0.07,445,weatherlink.com 1.10,2013-04-10 15:26:00,
2013-04-10 11:41:00,48.3,44.0,29.95,NNE,24,11.0,-999.0,85,-99.99,,,0.07,650,weatherlink.com 1.10,2013-04-10 15:41:00,
2013-04-10 11:56:00,47.9,44.0,29.96,North,5,1.0,-999.0,87,-99.99,,,0.07,462,weatherlink.com 1.10,2013-04-10 15:56:00,
2013-04-10 12:11:00,48.8,45.0,29.96,North,355,8.0,-999.0,85,-99.99,,,0.07,439,weatherlink.com 1.10,2013-04-10 16:11:00,
2013-04-10 12:27:00,48.6,44.0,29.95,NNW,342,4.0,-999.0,85,-99.99,,,0.07,610,weatherlink.com 1.10,2013-04-10 16:27:00,
2013-04-10 12:42:00,49.5,45.0,29.95,ENE,76,0.0,-999.0,84,-99.99,,,0.07,817,weatherlink.com 1.10,2013-04-10 16:42:00,
2013-04-10 12:57:00,51.2,46.0,29.95,North,355,0.0,-999.0,82,-99.99,,,0.07,851,weatherlink.com 1.10,2013-04-10 16:57:00,
2013-04-10 13:12:00,52.5,47.0,29.96,NNE,25,0.0,-999.0,80,-99.99,,,0.07,721,weatherlink.com 1.10,2013-04-10 17:12:00,
2013-04-10 13:27:00,53.6,46.0,29.95,North,360,0.0,-999.0,75,-99.99,,,0.07,809,weatherlink.com 1.10,2013-04-10 17:27:00,
2013-04-10 13:42:00,55.7,47.0,29.93,ENE,77,0.0,-999.0,73,-99.99,,,0.07,800,weatherlink.com 1.10,2013-04-10 17:42:00,
2013-04-10 13:57:00,53.3,46.0,29.94,SE,142,2.0,-999.0,76,-99.99,,,0.07,777,weatherlink.com 1.10,2013-04-10 17:57:00,
2013-04-10 14:12:00,53.2,46.0,29.93,ESE,118,7.0,-999.0,76,-99.99,,,0.07,758,weatherlink.com 1.10,2013-04-10 18:12:00,
2013-04-10 14:27:00,52.4,46.0,29.94,ESE,122,4.0,-999.0,78,-99.99,,,0.07,721,weatherlink.com 1.10,2013-04-10 18:27:00,
2013-04-10 14:42:00,51.8,46.0,29.93,ESE,113,0.0,-999.0,79,-99.99,,,0.07,696,weatherlink.com 1.10,2013-04-10 18:42:00,
2013-04-10 14:57:00,52.0,46.0,29.94,SE,142,0.0,-999.0,80,-99.99,,,0.07,675,weatherlink.com 1.10,2013-04-10 18:57:00,
2013-04-10 15:12:00,52.1,46.0,29.93,SE,133,4.0,-999.0,79,-99.99,,,0.07,629,weatherlink.com 1.10,2013-04-10 19:12:00,
2013-04-10 15:27:00,52.0,46.0,29.91,ESE,102,0.0,-999.0,79,-99.99,,,0.07,617,weatherlink.com 1.10,2013-04-10 19:27:00,
2013-04-10 15:42:00,51.6,45.0,29.90,ESE,123,0.0,-999.0,79,-99.99,,,0.07,169,weatherlink.com 1.10,2013-04-10 19:42:00,
2013-04-10 15:57:00,51.1,45.0,29.91,SE,144,0.0,-999.0,79,-99.99,,,0.07,167,weatherlink.com 1.10,2013-04-10 19:57:00,
2013-04-10 16:12:00,50.4,44.0,29.88,East,95,5.0,-999.0,80,-99.99,,,0.07,320,weatherlink.com 1.10,2013-04-10 20:12:00,
2013-04-10 16:27:00,50.2,45.0,29.87,ESE,103,2.0,-999.0,82,-99.99,,,0.07,464,weatherlink.com 1.10,2013-04-10 20:27:00,
2013-04-10 16:42:00,50.0,45.0,29.87,East,89,5.0,-999.0,82,-99.99,,,0.07,346,weatherlink.com 1.10,2013-04-10 20:42:00,
2013-04-10 16:57:00,49.9,44.0,29.89,ESE,111,5.0,-999.0,80,-99.99,,,0.07,318,weatherlink.com 1.10,2013-04-10 20:57:00,
2013-04-10 17:12:00,49.4,44.0,29.89,ESE,114,1.0,-999.0,82,-99.99,,,0.07,169,weatherlink.com 1.10,2013-04-10 21:12:00,
2013-04-10 17:27:00,49.4,44.0,29.90,SSE,150,0.0,-999.0,81,-99.99,,,0.07,163,weatherlink.com 1.10,2013-04-10 21:27:00,
2013-04-10 17:42:00,49.8,44.0,29.90,ESE,106,1.0,-999.0,81,-99.99,,,0.07,114,weatherlink.com 1.10,2013-04-10 21:42:00,
2013-04-10 17:57:00,48.9,44.0,29.90,East,98,0.0,-999.0,82,-99.99,,,0.07,93,weatherlink.com 1.10,2013-04-10 21:57:00,
2013-04-10 18:12:00,48.0,43.0,29.91,South,178,0.0,-999.0,84,-99.99,,,0.07,54,weatherlink.com 1.10,2013-04-10 22:12:00,
2013-04-10 18:27:00,47.9,44.0,29.90,ESE,122,4.0,-999.0,86,-99.99,,,0.07,9,weatherlink.com 1.10,2013-04-10 22:27:00,
2013-04-10 18:42:00,48.0,44.0,29.87,ESE,109,4.0,-999.0,87,-99.99,,,0.07,39,weatherlink.com 1.10,2013-04-10 22:42:00,
2013-04-10 18:57:00,48.1,44.0,29.87,SE,131,0.0,-999.0,87,-99.99,,,0.07,11,weatherlink.com 1.10,2013-04-10 22:57:00,
2013-04-10 19:12:00,48.1,44.0,29.87,East,101,2.0,-999.0,87,-99.99,,,0.07,0,weatherlink.com 1.10,2013-04-10 23:12:00,
2013-04-10 19:27:00,48.2,45.0,29.87,South,179,6.0,-999.0,87,-99.99,,,0.07,0,weatherlink.com 1.10,2013-04-10 23:27:00,
2013-04-10 19:42:00,48.2,45.0,29.86,ENE,67,2.0,-999.0,87,-99.99,,,0.07,0,weatherlink.com 1.10,2013-04-10 23:42:00,
2013-04-10 19:57:00,48.1,44.0,29.86,SSE,155,2.0,-999.0,86,-99.99,,,0.07,0,weatherlink.com 1.10,2013-04-10 23:57:00,
2013-04-10 20:12:00,48.0,44.0,29.86,SE,132,0.0,-999.0,86,-99.99,,,0.07,0,weatherlink.com 1.10,2013-04-11 00:12:00,
2013-04-10 20:27:00,47.8,44.0,29.88,SSE,165,0.0,-999.0,87,-99.99,,,0.07,0,weatherlink.com 1.10,2013-04-11 00:27:00,
2013-04-10 20:42:00,47.8,45.0,29.87,SE,134,0.0,-999.0,89,-99.99,,,0.07,0,weatherlink.com 1.10,2013-04-11 00:42:00,
2013-04-10 20:57:00,48.1,45.0,29.94,North,9,2.0,-999.0,89,-99.99,,,0.08,0,weatherlink.com 1.10,2013-04-11 00:57:00,
2013-04-10 21:12:00,48.3,46.0,29.89,ESE,116,5.0,-999.0,90,-99.99,,,0.19,0,weatherlink.com 1.10,2013-04-11 01:12:00,
2013-04-10 21:27:00,47.8,46.0,29.90,South,178,2.0,-999.0,92,-99.99,,,0.20,0,weatherlink.com 1.10,2013-04-11 01:27:00,
2013-04-10 21:42:00,47.8,46.0,29.90,South,173,0.0,-999.0,93,-99.99,,,0.20,0,weatherlink.com 1.10,2013-04-11 01:42:00,
2013-04-10 21:57:00,47.6,46.0,29.87,SSE,166,4.0,-999.0,93,-99.99,,,0.20,0,weatherlink.com 1.10,2013-04-11 01:57:00,
2013-04-10 22:12:00,47.4,46.0,29.86,South,171,0.0,-999.0,93,-99.99,,,0.20,0,weatherlink.com 1.10,2013-04-11 02:12:00,
2013-04-10 22:27:00,47.3,46.0,29.86,SE,136,0.0,-999.0,94,-99.99,,,0.20,0,weatherlink.com 1.10,2013-04-11 02:27:00,
2013-04-10 22:42:00,47.1,46.0,29.87,SE,136,0.0,-999.0,94,-99.99,,,0.20,0,weatherlink.com 1.10,2013-04-11 02:42:00,
2013-04-10 22:57:00,47.2,46.0,29.86,SE,136,0.0,-999.0,94,-99.99,,,0.20,0,weatherlink.com 1.10,2013-04-11 02:57:00,
2013-04-10 23:12:00,47.0,45.0,29.86,SE,136,0.0,-999.0,94,-99.99,,,0.20,0,weatherlink.com 1.10,2013-04-11 03:12:00,
2013-04-10 23:42:00,46.6,45.0,29.86,ESE,114,0.0,-999.0,94,-99.99,,,0.20,0,weatherlink.com 1.10,2013-04-11 03:42:00,
2013-04-10 23:57:00,46.4,45.0,29.87,East,86,2.0,-999.0,95,-99.99,,,0.20,0,weatherlink.com 1.10,2013-04-11 03:57:00,